241P/LINEAR (2021)

Japanese version
Home page
Updated on June 15, 2021

---------------------------------------------------------------------

* Profile

* Orbital Elements

Epoch 2021 Aug. 14.0 TT = JDT 2459440.5                                         
T 2021 July 25.79225 TT                                 Rudenko                 
q   1.9174619            (2000.0)            P               Q                  
n   0.09043433     Peri.  111.42579     +0.49511904     -0.81784748             
a   4.9156450      Node   305.48306     +0.60206805     +0.56629680             
e   0.6099267      Incl.   21.10658     +0.62639540     +0.10214419             
P  10.9                                                                         
From 495 observations 1999 Oct. 30-2020 Oct. 19, mean residual 1".4.            

* Magnitudes Graph

        m1 = 11.0 + 5 log d + 15.0 log r

---------------------------------------------------------------------

The orbital elements are published on M.P.E.C. 2020-W26.
The magnitudes graphs are made with Comet for Windows.

---------------------------------------------------------------------

Copyright(C) Seiichi Yoshida (comet@aerith.net). All rights reserved.